Regional Weather Roundup
Issued by NWS

Home | Current Version | Previous Version | Text Only | Print | Product List | Glossary On
Versions: 1 2 3 4 5 6 7 8 9 10 11 12 13 14 15 16 17 18 19 20 21 22 23 24 25 26 27 28 29 30 31 32 33 34 35 36 37 38 39 40 41 42 43 44 45 46 47 48 49 50
000
ASUS45 KPSR 180110
RWRAZ

ARIZONA HOURLY REGIONAL WEATHER ROUNDUP
NATIONAL WEATHER SERVICE PHOENIX AZ
600 PM MST SAT FEB 17 2018

NOTE: FAIR INDICATES FEW OR NO CLOUDS BELOW 12,000 FEET WITH NO
SIGNIFICANT WEATHER AND/OR OBSTRUCTIONS TO VISIBILITY.

AZZ001>003-036-180200-
NORTHWEST ARIZONA

CITY           SKY/WX    TMP DP  RH WIND       PRES   REMARKS
BULLHEAD CITY  PTCLDY    70  12  11 SW3       30.03F
KINGMAN        PTCLDY    60  24  25 SW10      30.09F
$$

AZZ004>008-015-016-018-180200-
NORTH CENTRAL ARIZONA

CITY           SKY/WX    TMP DP  RH WIND       PRES   REMARKS
GRAND CANYON   PTCLDY    48  20  32 CALM      30.16S
WILLIAMS       PTCLDY    50  16  25 SW5       30.15S
PRESCOTT       MOCLDY    56  29  35 CALM      30.12S
FLAGSTAFF      MOCLDY    45  24  43 SW9       30.18S
PAYSON         MOCLDY    54  34  47 SW5       30.15R
PAGE           FAIR      51  21  30 CALM      30.07F
$$

AZZ009>014-017-180200-
NORTHEAST ARIZONA

CITY           SKY/WX    TMP DP  RH WIND       PRES   REMARKS
WINSLOW        MOCLDY    56  16  20 E7        30.12S
SAINT JOHNS    CLOUDY    51  32  48 N5        30.14S
WINDOW ROCK    MOCLDY    48  25  40 S12       30.16S
SHOW LOW       MOCLDY    52  28  40 SW7       30.18S
$$

AZZ540-542>544-546-548-180200-
GREATER PHOENIX AREA

CITY           SKY/WX    TMP DP  RH WIND       PRES   REMARKS
PHOENIX        MOCLDY    69  45  41 CALM      30.04S
BUCKEYE        MOCLDY    66  45  45 CALM      30.06R
GLENDALE       MOCLDY    70  45  40 CALM      30.06S
LUKE AFB       MOCLDY    68  44  42 NW5       30.03S
DEER VALLEY    MOCLDY    66  43  43 SW3       30.05S
SCOTTSDALE     CLOUDY    67  44  43 CALM      30.06S
MESA-FALCON    MOCLDY    68  45  42 W6        30.06S
MESA-GATEWAY   MOCLDY    66  46  48 W5        30.06S
CHANDLER       CLOUDY    68  46  45 W5        30.05
$$

AZZ539-553-180200-
SOUTHWEST MARICOPA COUNTY AND PINAL COUNTY

CITY           SKY/WX    TMP DP  RH WIND       PRES   REMARKS
CASA GRANDE      N/A     66  49  54 SW6       30.07S
GILA BEND      FAIR      69  44  41 CALM      30.04S
$$

AZZ503-504-507>509-180200-
SOUTHEAST ARIZONA

CITY           SKY/WX    TMP DP  RH WIND       PRES   REMARKS
TUCSON         CLOUDY    65  53  65 N7        30.08S
DAVIS-MONTHAN  MOCLDY    64  53  67 NW9       30.07R
RYAN FIELD     CLEAR     64  54  68 NW9       30.09R
NOGALES        CLOUDY    64  46  52 W3        30.10S
SIERRA VISTA   CLOUDY    58  49  71 CALM      30.14S
DOUGLAS        MOCLDY    61  49  64 SE5       30.13R
SAFFORD        CLOUDY    61  46  57 W3        30.10R
$$

AZZ532-180200-
SOUTHWEST ARIZONA

CITY           SKY/WX    TMP DP  RH WIND       PRES   REMARKS
YUMA           MOCLDY    70  21  15 S5        30.04F
$$

CAZ041-043-047-048-061-525>527-560>570-180200-
SOUTHERN CALIFORNIA

CITY           SKY/WX    TMP DP  RH WIND       PRES   REMARKS
DOWNTOWN L.A.  CLEAR     68  33  27 W7        30.03F
L.A. AIRPORT   PTCLDY    64  50  60 W13       30.04F
SAN DIEGO      MOCLDY    69  32  25 NW8       30.05S
BURBANK        CLEAR     69  29  22 S9        30.03S
ONTARIO        PTCLDY    71  26  18 W9        30.02F
RIVERSIDE      PTCLDY    72  26  18 W12       30.02S
PALM SPRINGS   PTCLDY    71  16  12 SE5       30.04F
EL CENTRO NAS  PTCLDY    71  18  13 E3        30.05F
IMPERIAL       PTCLDY    72  20  14 SE3       30.03F
BLYTHE         PTCLDY    71  28  20 S7        30.04F
NEEDLES        PTCLDY    71  21  15 SE3       30.04F
$$

NVZ020-UTZ003-180200-
SOUTHERN NEVADA-UTAH

CITY           SKY/WX    TMP DP  RH WIND       PRES   REMARKS
LAS VEGAS      PTCLDY    63  13  14 E6        30.05F
SALT LAKE CITY MOCLDY    58  14  17 S15       29.90F
$$

NMZ009-TXZ055-180200-
NEW MEXICO-WEST TEXAS

CITY           SKY/WX    TMP DP  RH WIND       PRES   REMARKS
ALBUQUERQUE    MOCLDY    53  24  32 S9        30.16R
EL PASO        CLOUDY    58  45  62 NE5       30.15R
$$


........................KEY........................
SKY/WX - SKY CONDITION/WEATHER
TMP    - TEMPERATURE IN FAHRENHEIT
DP     - DEW POINT IN FAHRENHEIT
RH     - RELATIVE HUMIDITY IN PERCENT
WIND   - DIRECTION AND SPEED IN MILES PER HOUR (MPH)
VRB    - VARIABLE WIND DIRECTION
PRES   - MEAN SEA LEVEL PRESSURE IN INCHES OF MERCURY
         F - FALLING PRESSURE   R - RISING PRESSURE
         S - STEADY PRESSURE
VSB    - VISIBILITY IN MILES
HX     - HEAT INDEX IN FAHRENHEIT
WCI    - WIND CHILL INDEX IN FAHRENHEIT
TC     - TEMPERATURE IN CELSIUS WHICH IS ALSO KNOWN AS
         TEMPERATURE IN CENTIGRADE
AFB    - AIR FORCE BASE
         LUKE AFB IS LUKE AIR FORCE BASE
         DAVIS-MONTHAN IS DAVIS-MONTHAN AIR FORCE BASE
NAS    - NAVAL AIR STATION
         EL CENTRO NAS IS EL CENTRO NAVAL AIR STATION
N/A    - NOT AVAILABLE




USA.gov is the U.S. government's official web portal to all federal, state and local government web resources and services.